Location: Newark
(51.2625°N, 13.3939°E)
Time: 00:45:17
(UTC+00:00)

Transit 2A Rocket - Pass Details

Date: 19 January 2021
Orbit: 594 x 909 km, 66.7° (Epoch: 03 March)

Event Time Altitude Azimuth Distance (km) Brightness Sun altitude
Rises 18:00:42 0° 317° (NW) 3,065 8.7 -22.3°
Reaches altitude 10° 18:04:07 10° 341° (NNW) 2,083 7.4 -22.8°
Enters shadow 18:06:02 14° 5° (N) 1,779 6.8 -23.1°
